Temperature
21 23 24 24 24 24 22 21 21 21 21 20 20 19 19 19 19 19 20 20 20 20 20 20 20 20 20 20 20 20 20 19 19 19 19 19 18 18 18 18 18 17 17 17
22 23 24 24 24 24 24 23 22 21 20 20 20 20 19 19 19 19 19 19 19 19 19 20 20 20 20 20 20 20 19 19 19 19 18 18 18 18 18 18 17 17 17 17
20 22 22 22 22 23 23 23 22 21 20 19 19 19 18 19 19 18 18 19 19 19 19 19 20 19 19 19 19 19 19 19 18 18 18 18 18 18 17 17 17 17 17 17
18 20 20 21 21 23 22 21 21 20 20 19 19 19 19 19 19 18 18 18 19 19 19 19 19 19 19 19 19 19 18 18 18 18 17 17 17 17 17 17 16 16 16 16
17 18 19 21 21 21 21 20 20 20 19 19 19 18 18 18 19 19 19 18 18 18 18 18 18 18 18 18 18 18 17 17 17 17 17 17 16 16 16 16 16 16 16 16
17 18 19 20 21 22 21 19 19 19 19 18 18 17 17 18 18 18 18 18 18 18 18 18 18 17 17 17 17 17 17 17 17 17 16 16 16 16 16 15 15 15 15 15
17 17 18 19 20 21 20 18 19 19 19 19 17 18 18 18 18 18 18 18 18 17 17 17 17 17 17 17 16 16 16 16 16 16 16 16 15 15 15 15 15 15 15 15
16 17 17 19 19 19 18 19 19 19 19 19 18 18 18 18 17 17 17 17 17 17 17 17 17 17 16 16 16 16 16 16 15 15 15 15 15 14 14 14 14 14 14 14
15 15 16 18 18 19 19 18 19 19 19 18 18 17 17 17 16 16 16 16 16 16 16 16 16 16 16 15 15 15 15 15 15 15 15 14 14 14 14 14 14 14 14 14
15 16 16 17 18 18 18 18 18 18 18 18 17 17 16 16 16 16 15 16 15 15 15 15 15 15 15 15 15 14 14 14 14 14 14 14 14 14 14 13 13 13 13 13
14 15 16 17 18 18 18 18 18 18 18 17 17 16 16 15 15 15 15 15 15 15 15 15 14 14 14 14 14 14 14 14 14 13 13 13 13 13 13 13 13 13 13 13
14 15 15 16 17 18 17 17 17 17 16 16 16 16 15 15 15 15 15 15 14 14 14 14 14 14 14 14 14 14 13 13 13 13 13 13 13 13 13 13 13 13 13 13
17 17 17 17 17 17 17 16 17 16 16 16 15 15 15 15 14 14 14 14 14 14 14 13 13 13 13 13 13 13 13 13 13 13 13 13 13 13 13 13 13 13 13 13
17 17 16 16 16 16 16 16 16 16 15 15 15 15 15 14 14 14 14 14 13 13 13 13 13 13 13 13 13 13 13 13 12 12 12 12 12 12 12 12 12 12 12 12
17 17 16 16 16 16 16 16 15 15 14 14 14 14 14 14 13 13 13 13 13 13 13 12 12 12 12 12 12 12 12 12 12 12 12 12 12 12 12 12 12 12 12 12
16 16 16 16 15 15 15 15 15 14 14 14 14 14 13 13 13 13 13 13 12 12 12 12 12 12 12 12 12 12 12 12 12 12 12 12 12 12 11 11 11 11 11 11
16 15 15 15 15 15 15 15 14 14 14 14 13 13 13 13 12 12 12 12 12 12 12 11 11 11 11 12 12 12 12 11 11 11 11 11 11 11 11 11 11 11 11 11
16 15 15 15 15 14 14 14 14 14 13 13 13 13 12 12 12 12 12 12 12 11 11 11 11 11 11 11 11 11 11 11 11 11 11 11 11 11 11 11 11 11 11 11
15 15 15 14 14 14 14 14 13 13 13 13 13 12 12 12 12 12 12 11 11 11 11 11 11 11 11 11 11 11 11 11 11 11 11 11 11 11 11 11 11 11 11 10
14 14 14 14 14 14 13 13 13 13 13 13 12 12 12 12 11 11 11 11 11 11 11 11 11 11 11 11 11 11 11 11 11 11 11 11 11 11 11 11 11 10 10 10
14 14 14 13 13 13 13 13 13 12 12 12 12 12 12 11 11 11 11 11 11 11 11 11 11 11 11 11 11 11 11 11 11 11 11 11 10 10 10 10 10 10 10 10
13 13 13 13 13 13 12 12 12 12 12 12 12 12 11 11 11 11 11 11 11 11 11 11 11 11 11 11 11 11 11 11 10 10 10 10 10 10 10 10 10 10 10 10
13 13 13 13 12 12 12 12 12 12 12 12 11 11 11 11 11 11 11 11 11 11 11 11 11 11 11 11 10 10 10 10 10 10 10 10 10 10 10 9 9 9 9 9
13 13 13 12 12 12 12 12 12 12 12 12 11 11 11 11 11 11 11 11 11 11 11 10 10 10 10 10 10 10 10 10 10 10 10 9 9 9 9 9 9 9 8 8
13 13 12 12 12 12 12 12 12 11 11 11 11 11 11 11 11 10 10 10 10 10 10 10 10 10 10 10 10 10 10 10 9 9 9 9 9 9 9 9 8 8 8 8
12 12 12 12 12 12 12 11 11 11 11 11 11 11 11 11 10 10 10 10 10 10 10 10 10 10 10 10 9 9 9 9 9 9 9 9 9 8 8 8 8 8 8 7
12 12 12 12 12 12 12 12 11 11 11 11 11 11 11 10 10 10 10 10 10 10 10 10 10 9 9 9 9 9 9 9 9 9 9 9 8 8 8 8 8 7 7 7
Wind_Speed
6 5 3 3 5 3 3 7 7 7 8 9 7 8 7 7 8 9 7 6 5 4 4 5 6 6 6 6 6 7 6 6 6 6 6 6 5 5 5 5 6 5 4 3
2 1 2 5 6 4 2 4 5 6 4 5 5 6 7 7 8 8 7 6 5 4 4 5 6 6 6 6 6 6 7 6 5 5 5 5 5 4 4 4 4 4 4 4
3 3 4 5 6 3 1 2 7 6 6 7 7 8 9 8 7 7 6 6 5 4 5 5 5 6 5 5 6 6 6 5 4 4 4 4 4 4 4 5 4 4 4 5
2 2 3 6 4 1 3 0 2 5 8 11 9 7 5 6 7 6 5 3 4 4 4 4 4 4 4 4 5 6 5 4 4 4 4 4 3 4 5 4 4 5 5 5
3 3 4 4 3 1 2 1 1 8 10 10 9 8 4 2 5 6 6 4 4 5 5 5 5 4 5 5 4 5 4 3 3 4 4 4 4 4 4 4 4 4 5 5
4 4 5 5 4 1 4 1 0 9 12 10 9 5 3 3 5 6 6 5 5 5 6 5 4 4 6 5 4 3 2 2 2 3 4 4 5 5 4 4 5 4 4 4
4 4 4 5 5 2 4 6 4 7 10 8 5 6 6 5 5 6 5 4 5 6 5 4 4 5 5 4 3 2 2 1 1 2 2 2 3 3 3 3 3 3 4 3
3 3 5 4 2 2 5 4 5 6 8 8 7 7 7 7 6 6 5 5 5 5 4 2 3 4 4 2 2 1 1 1 0 1 1 1 1 2 2 3 3 2 2 3
4 5 4 1 3 2 4 6 4 5 7 10 9 8 8 6 6 5 4 4 4 5 4 2 2 3 3 1 1 2 2 1 0 1 1 1 2 2 2 3 3 3 2 3
1 1 0 2 4 4 5 5 6 8 9 10 10 9 7 6 5 4 4 4 3 4 4 2 1 2 1 1 2 2 1 1 1 1 1 1 1 1 2 2 2 2 3 3
1 1 3 3 3 5 5 6 8 9 9 9 10 9 7 6 5 4 3 3 3 4 4 2 1 1 0 1 2 2 1 1 1 1 1 0 1 2 2 3 4 4 4 4
5 6 4 4 3 6 8 7 8 10 8 6 8 8 6 5 4 3 4 3 4 3 3 2 1 1 0 0 1 2 2 1 1 1 1 1 0 2 3 2 3 5 6 5
5 4 5 4 4 6 7 7 8 9 9 7 5 7 6 4 3 3 3 3 4 3 2 2 1 1 1 1 0 1 2 2 1 1 1 1 1 1 2 3 2 2 4 5
4 5 5 4 5 6 9 9 9 9 7 6 6 6 6 5 4 4 3 2 3 3 3 2 1 1 2 1 0 0 1 1 1 1 1 1 2 2 2 2 2 3 3 4
4 5 6 6 6 7 7 9 9 7 5 5 5 5 5 5 4 3 3 3 4 3 2 1 1 2 2 1 1 1 1 1 1 1 2 2 2 1 1 1 2 2 3 4
5 6 7 7 7 6 7 8 7 5 5 5 4 4 5 5 4 3 3 3 3 2 1 1 1 2 2 0 1 1 1 2 1 1 1 1 1 1 0 1 1 1 2 3
7 6 6 6 6 5 6 6 6 5 5 5 4 4 5 5 4 3 2 1 2 2 1 1 1 2 1 1 0 0 1 2 1 0 1 1 1 1 1 1 1 2 3 3
6 5 7 8 7 6 6 5 5 5 5 5 5 5 4 4 3 2 1 1 2 2 1 1 1 1 1 1 1 1 1 1 1 1 1 1 1 2 1 1 2 2 2 3
7 7 7 6 6 7 6 5 4 4 4 5 5 5 4 3 3 2 1 2 2 1 3 2 2 1 2 2 2 1 1 1 1 1 1 1 1 1 1 1 1 2 2 2
7 7 7 7 6 6 6 5 5 4 4 4 5 5 3 3 2 2 2 1 2 3 3 2 1 2 2 2 1 0 1 1 1 1 1 1 1 1 2 1 1 1 1 1
6 6 7 6 5 4 4 5 5 5 4 5 6 6 4 3 3 3 2 1 3 2 1 1 1 2 2 1 0 0 0 1 1 1 1 1 1 1 1 1 1 1 1 1
5 5 6 5 5 3 3 4 4 5 4 5 5 5 4 3 2 2 2 2 2 2 1 1 1 1 0 1 1 0 0 0 1 1 0 0 0 0 1 1 1 2 1 1
4 4 5 4 4 3 3 3 3 4 5 5 5 5 4 3 3 3 1 2 1 1 1 1 1 1 1 1 1 0 1 1 1 1 0 0 1 0 1 1 1 1 1 0
3 4 4 3 4 4 3 2 2 3 4 4 4 5 4 3 1 1 2 2 2 1 0 1 1 1 0 0 0 0 0 0 1 1 1 0 0 0 0 0 0 0 0 0
4 4 5 5 3 2 3 3 3 3 3 2 2 2 3 4 3 2 1 1 1 1 0 0 1 1 1 0 0 0 1 1 1 1 0 0 0 0 0 0 0 0 0 0
3 4 4 4 3 3 3 3 3 2 3 3 2 1 2 2 3 2 2 1 1 1 0 0 1 1 0 0 0 1 1 1 1 1 1 1 0 0 0 1 1 0 0 0
3 3 3 3 2 2 2 3 4 3 3 4 3 2 2 2 2 2 2 1 1 0 0 0 0 0 0 0 0 0 1 1 1 0 0 0 0 0 1 1 1 1 1 1
Wind_Direction
224 235 240 276 290 282 202 186 180 198 184 200 187 160 151 141 130 120 115 113 125 142 146 145 148 155 159 160 167 167 168 178 188 189 185 181 183 188 191 192 199 199 197 209
283 293 339 317 307 284 216 174 156 147 184 201 164 141 138 136 128 125 123 126 142 150 142 140 145 152 156 162 168 165 172 183 186 178 175 180 184 185 187 194 198 193 200 202
258 286 352 305 285 253 231 195 157 176 197 155 143 154 158 152 136 133 133 142 152 148 149 148 150 152 158 169 164 163 176 177 177 178 180 189 188 184 196 203 200 202 209 204
193 65 221 247 276 183 149 194 158 148 154 155 155 144 131 134 133 136 133 134 134 124 119 118 119 122 125 123 141 155 167 172 178 182 190 193 196 203 207 207 206 209 215 210
149 177 247 276 286 239 145 359 101 134 139 135 116 87 69 108 127 131 134 140 130 118 108 101 104 112 109 104 108 125 143 156 169 170 181 186 197 216 218 212 215 221 220 213
147 158 215 244 277 265 96 71 323 131 138 141 124 128 198 163 116 106 98 107 113 111 101 97 95 102 108 110 107 117 135 158 160 170 183 193 203 219 220 211 217 221 229 218
164 191 243 263 293 55 142 205 207 144 140 139 142 166 167 132 103 102 99 100 100 102 99 105 108 101 109 113 128 169 153 144 152 172 186 191 206 214 209 206 205 216 219 223
149 174 234 290 11 146 193 173 148 137 137 131 122 117 117 116 111 109 102 99 102 102 100 105 110 108 112 142 185 164 139 129 100 251 228 186 194 228 213 192 194 210 216 239
176 207 246 256 133 134 126 123 125 120 126 128 119 116 116 115 115 112 110 105 102 111 100 79 98 124 132 181 162 136 117 93 26 294 262 209 197 206 220 207 200 211 216 236
84 257 34 66 88 86 100 118 123 120 125 126 124 127 127 130 132 131 125 120 114 113 107 84 68 110 143 176 153 141 145 163 215 232 313 321 263 218 215 218 213 217 231 239
127 216 50 40 98 111 104 107 103 110 117 128 129 132 134 133 137 139 132 131 127 129 127 122 75 72 93 175 134 139 161 192 219 210 205 251 312 270 242 226 209 207 234 231
212 216 175 202 173 126 117 111 115 112 101 108 123 126 124 129 132 131 133 130 124 123 124 126 101 63 348 69 145 157 175 214 236 242 229 150 158 326 326 271 245 229 225 225
183 177 155 153 129 123 119 115 109 108 110 107 109 119 117 119 117 112 112 115 126 136 132 117 91 350 299 293 96 156 187 218 242 257 240 206 226 261 303 325 333 295 261 245
135 116 102 106 119 119 117 112 106 102 105 107 116 119 118 114 107 103 109 118 124 120 111 104 95 301 292 299 0 294 208 213 225 233 224 225 234 241 249 274 310 316 304 280
132 133 137 129 119 117 116 114 109 110 109 102 104 115 120 119 117 115 116 111 101 95 93 98 82 297 293 328 360 306 261 251 251 239 231 234 235 233 247 266 280 296 314 315
129 119 124 127 134 136 126 123 123 127 124 116 106 117 126 125 120 114 111 110 107 107 109 94 309 291 299 349 17 337 308 302 294 258 248 256 238 200 252 268 278 289 291 286
133 138 138 134 138 135 135 139 142 145 138 131 132 131 121 110 103 90 86 102 126 143 143 157 278 298 328 33 123 283 300 305 308 290 230 240 244 245 253 253 259 272 276 271
141 151 149 143 140 130 126 129 133 141 148 148 136 126 124 126 135 143 144 100 78 51 355 258 264 305 336 349 309 253 255 277 293 267 252 249 260 260 253 253 254 266 287 296
114 117 117 119 125 125 127 129 129 126 123 125 129 138 149 150 153 159 125 105 104 314 287 279 289 314 314 302 299 264 268 279 292 296 275 272 295 289 268 255 257 265 274 286
105 108 108 104 105 115 125 131 131 125 123 127 130 134 142 158 157 151 129 137 221 231 245 267 293 299 286 289 302 257 292 286 266 271 280 286 302 290 269 263 268 279 284 279
106 111 112 109 103 104 120 136 138 141 142 143 143 151 163 170 166 155 145 213 277 267 260 266 272 266 271 293 334 92 314 320 294 291 331 329 328 320 314 322 317 307 293 278
115 122 123 121 120 119 123 131 139 146 146 148 152 152 152 157 156 149 176 201 232 248 244 272 279 275 320 27 57 41 359 353 325 330 358 316 330 11 354 346 330 324 325 325
123 133 134 135 141 143 139 136 140 144 150 160 162 162 165 172 164 156 201 246 215 198 202 281 323 352 19 73 77 74 33 21 1 346 315 240 194 196 291 312 330 13 43 8
125 131 135 136 129 124 137 155 145 145 149 156 168 171 161 148 128 196 190 185 170 159 156 285 323 317 296 112 108 162 278 323 322 318 314 286 280 263 249 244 179 344 336 316
123 118 118 117 119 136 153 143 119 111 122 133 148 157 152 148 153 181 172 159 160 162 187 285 329 338 3 67 164 221 231 243 254 263 262 267 279 257 240 94 114 67 339 328
125 131 135 142 148 152 150 141 136 136 130 121 118 128 130 132 140 150 155 162 161 143 150 312 343 349 345 284 253 222 224 243 264 257 250 240 275 77 99 93 77 97 180 213
109 107 106 96 96 131 141 139 141 145 145 142 141 142 133 126 127 131 131 128 127 115 80 20 182 195 266 303 278 269 243 231 228 239 185 101 113 168 190 190 196 208 208 207
Height
1462 1458 1456 1457 1457 1456 1464 1468 1475 1474 1474 1470 1467 1466 1468 1468 1469 1470 1471 1473 1475 1476 1478 1481 1484 1487 1489 1491 1494 1496 1498 1500 1501 1503 1504 1506 1507 1508 1509 1510 1511 1511 1512 1512
1461 1454 1454 1456 1454 1453 1455 1458 1462 1465 1469 1462 1463 1465 1467 1467 1468 1470 1471 1473 1476 1477 1478 1479 1481 1483 1486 1488 1491 1493 1494 1496 1498 1499 1500 1502 1503 1504 1505 1506 1506 1507 1507 1508
1471 1458 1458 1467 1457 1454 1455 1453 1456 1464 1464 1461 1463 1464 1465 1466 1468 1470 1471 1473 1474 1476 1477 1478 1480 1482 1484 1486 1488 1490 1492 1493 1494 1496 1497 1498 1499 1500 1501 1501 1502 1502 1503 1504
1473 1468 1480 1464 1449 1447 1450 1452 1450 1452 1455 1457 1459 1462 1465 1467 1468 1470 1472 1474 1475 1476 1477 1478 1480 1481 1482 1483 1484 1487 1489 1490 1491 1493 1494 1494 1496 1497 1497 1498 1498 1499 1499 1499
1476 1478 1472 1458 1450 1449 1453 1457 1451 1452 1454 1457 1460 1464 1469 1469 1469 1470 1471 1473 1474 1475 1476 1478 1479 1479 1480 1482 1483 1485 1486 1487 1488 1489 1491 1490 1491 1493 1494 1494 1494 1495 1495 1495
1471 1475 1477 1461 1447 1445 1450 1462 1453 1451 1453 1457 1459 1469 1471 1469 1469 1469 1471 1472 1474 1475 1476 1477 1478 1478 1479 1481 1481 1482 1483 1484 1485 1487 1487 1488 1488 1490 1490 1490 1490 1490 1490 1491
1469 1472 1464 1451 1445 1445 1462 1463 1453 1451 1452 1455 1458 1462 1465 1466 1467 1469 1471 1472 1473 1474 1476 1477 1478 1478 1478 1479 1480 1481 1482 1483 1483 1483 1484 1484 1485 1485 1485 1485 1485 1484 1484 1485
1468 1472 1468 1447 1446 1450 1452 1448 1450 1451 1452 1455 1458 1460 1463 1465 1467 1469 1470 1472 1473 1474 1475 1477 1477 1477 1478 1478 1479 1480 1480 1479 1479 1480 1480 1480 1480 1481 1481 1482 1481 1480 1480 1480
1461 1463 1452 1447 1446 1447 1447 1448 1449 1451 1453 1455 1458 1460 1462 1465 1467 1469 1470 1471 1473 1474 1475 1475 1476 1477 1477 1477 1478 1478 1478 1477 1478 1478 1478 1477 1477 1477 1477 1478 1477 1477 1477 1477
1456 1453 1450 1448 1447 1448 1448 1449 1450 1451 1453 1456 1458 1460 1463 1465 1467 1469 1470 1471 1472 1473 1474 1474 1475 1475 1475 1475 1476 1476 1476 1475 1476 1476 1475 1475 1474 1475 1475 1474 1472 1473 1474 1473
1456 1453 1450 1450 1448 1448 1450 1451 1451 1452 1454 1455 1457 1460 1462 1465 1467 1467 1468 1470 1471 1472 1472 1472 1473 1473 1474 1474 1474 1474 1474 1474 1474 1473 1472 1471 1472 1472 1472 1472 1471 1471 1471 1470
1453 1449 1450 1450 1449 1450 1450 1451 1452 1453 1455 1457 1458 1460 1462 1464 1465 1466 1467 1469 1469 1470 1470 1471 1471 1472 1472 1472 1471 1471 1471 1470 1471 1470 1469 1469 1469 1469 1469 1469 1469 1469 1468 1468
1444 1445 1447 1448 1449 1450 1450 1451 1452 1454 1456 1458 1460 1461 1462 1464 1465 1466 1467 1467 1468 1469 1470 1470 1470 1470 1470 1470 1469 1469 1468 1468 1468 1467 1467 1466 1467 1467 1466 1466 1466 1465 1465 1464
1443 1444 1446 1448 1448 1450 1451 1452 1453 1455 1457 1459 1460 1462 1463 1464 1465 1465 1466 1467 1468 1468 1468 1469 1469 1469 1469 1468 1467 1466 1466 1465 1465 1464 1465 1464 1464 1464 1464 1463 1462 1461 1461 1461
1444 1444 1445 1448 1449 1450 1451 1452 1454 1456 1458 1459 1460 1461 1463 1463 1464 1465 1466 1467 1467 1468 1468 1468 1467 1467 1467 1466 1465 1464 1463 1463 1463 1463 1463 1463 1463 1462 1462 1461 1460 1459 1458 1458
1444 1445 1446 1448 1450 1451 1452 1453 1454 1456 1457 1458 1460 1461 1462 1463 1464 1465 1465 1466 1466 1466 1467 1466 1466 1466 1465 1464 1463 1463 1462 1462 1462 1461 1461 1461 1461 1461 1460 1460 1459 1458 1457 1456
1443 1445 1446 1448 1449 1450 1451 1452 1453 1454 1456 1457 1458 1460 1461 1462 1463 1464 1465 1465 1465 1465 1465 1465 1465 1464 1463 1463 1462 1462 1461 1460 1460 1460 1460 1460 1459 1459 1459 1458 1457 1457 1456 1455
1442 1444 1445 1446 1448 1449 1451 1452 1453 1454 1455 1456 1457 1458 1460 1461 1462 1463 1464 1464 1464 1464 1464 1464 1463 1462 1462 1461 1461 1461 1460 1459 1459 1459 1458 1458 1458 1458 1457 1456 1455 1455 1454 1453
1442 1444 1445 1447 1448 1449 1450 1451 1452 1453 1454 1455 1456 1457 1459 1460 1461 1462 1463 1463 1463 1462 1463 1462 1462 1461 1460 1460 1460 1459 1458 1458 1457 1457 1457 1457 1456 1456 1455 1454 1454 1453 1452 1451
1442 1444 1445 1447 1448 1449 1450 1451 1452 1453 1454 1455 1456 1457 1458 1459 1461 1461 1462 1462 1462 1461 1461 1461 1460 1460 1459 1459 1458 1457 1457 1456 1456 1456 1456 1455 1455 1454 1454 1453 1452 1451 1450 1449
1443 1444 1445 1447 1448 1449 1450 1451 1451 1452 1453 1455 1456 1456 1458 1458 1459 1460 1460 1460 1461 1460 1460 1459 1458 1458 1457 1457 1457 1456 1455 1455 1455 1454 1454 1453 1453 1452 1452 1451 1450 1449 1448 1446
1443 1444 1445 1447 1448 1449 1450 1451 1451 1452 1453 1454 1455 1456 1456 1457 1458 1459 1459 1459 1459 1459 1458 1457 1456 1455 1455 1455 1455 1454 1454 1454 1453 1453 1452 1451 1450 1450 1449 1448 1447 1446 1445 1444
1443 1444 1445 1446 1447 1448 1449 1450 1451 1451 1452 1453 1454 1454 1455 1456 1457 1457 1458 1458 1458 1458 1457 1456 1455 1454 1454 1454 1453 1453 1452 1452 1452 1451 1450 1449 1448 1448 1447 1446 1445 1444 1443 1442
1443 1444 1445 1446 1447 1448 1448 1449 1450 1450 1451 1452 1453 1453 1454 1454 1455 1456 1457 1457 1457 1457 1456 1455 1455 1454 1453 1453 1452 1451 1451 1450 1450 1449 1448 1448 1447 1446 1445 1444 1443 1442 1441 1440
1443 1444 1445 1446 1447 1447 1448 1449 1449 1450 1450 1451 1452 1453 1453 1454 1455 1456 1456 1457 1456 1456 1455 1455 1454 1453 1452 1451 1451 1450 1449 1449 1448 1447 1447 1446 1445 1444 1443 1442 1441 1440 1439 1437
1444 1445 1446 1447 1448 1448 1449 1449 1449 1450 1450 1451 1452 1452 1453 1454 1455 1456 1456 1456 1456 1455 1454 1454 1453 1452 1451 1450 1450 1449 1448 1447 1447 1446 1445 1444 1443 1442 1441 1440 1439 1438 1437 1435
1444 1445 1446 1447 1448 1449 1449 1449 1450 1450 1451 1451 1452 1453 1453 1454 1455 1455 1456 1456 1455 1454 1454 1453 1452 1451 1450 1449 1448 1448 1447 1446 1445 1444 1443 1443 1442 1441 1440 1439 1437 1436 1434 1432